This is the latest recevied weather packets stored in our database for station/object K5UTC. If no packets are shown the sender has not sent any weather packets the latest 1 day(s).
| Time | Temp. | Humidity | Pressure | Rain* | Wind** | Luminosity | Snow |
|---|---|---|---|---|---|---|---|
| 1778051182 | 22.78° C | 69% | 1008 hPa | 0 mm | 0.45 m/s, 152° | 0 W/m² | - |
| 1778050879 | 22.78° C | 69% | 1007.9 hPa | 0 mm | 0 m/s | 0 W/m² | - |
| 1778050577 | 22.78° C | 68% | 1008.1 hPa | 0 mm | 0 m/s | 0 W/m² | - |
| 1778050274 | 22.78° C | 68% | 1008.1 hPa | 0 mm | 0 m/s | 0 W/m² | - |
| 1778049970 | 22.78° C | 68% | 1008 hPa | 0 mm | 0.45 m/s, 250° | 0 W/m² | - |
| 1778049666 | 22.78° C | 68% | 1008.1 hPa | 0 mm | 0.89 m/s, 73° | 0 W/m² | - |
| 1778049364 | 23.33° C | 67% | 1008.1 hPa | 0 mm | 0 m/s | 0 W/m² | - |
| 1778049061 | 23.33° C | 68% | 1008.4 hPa | 0 mm | 0.89 m/s, 154° | 0 W/m² | - |
| 1778048759 | 23.33° C | 67% | 1008.2 hPa | 0 mm | 0.45 m/s, 196° | 0 W/m² | - |
| 1778048456 | 23.33° C | 66% | 1008.6 hPa | 0 mm | 0.45 m/s, 156° | 0 W/m² | - |
| 1778048152 | 23.33° C | 65% | 1008.4 hPa | 0 mm | 0.45 m/s, 270° | 0 W/m² | - |
| 1778047850 | 23.33° C | 66% | 1008.6 hPa | 0 mm | 0.89 m/s, 160° | 0 W/m² | - |
| 1778047548 | 23.33° C | 65% | 1008.5 hPa | 0 mm | 1.79 m/s, 225° | 0 W/m² | - |
| 1778047245 | 23.33° C | 65% | 1008.6 hPa | 0 mm | 0.89 m/s, 152° | 0 W/m² | - |
| 1778046942 | 23.33° C | 65% | 1008.6 hPa | 0 mm | 1.34 m/s, 279° | 0 W/m² | - |
| 1778046639 | 23.33° C | 65% | 1008.7 hPa | 0 mm | 0.89 m/s, 185° | 0 W/m² | - |
| 1778046336 | 23.33° C | 65% | 1008.7 hPa | 0 mm | 0.89 m/s, 170° | 0 W/m² | - |
| 1778046031 | 23.33° C | 64% | 1008.7 hPa | 0 mm | 0.45 m/s, 114° | 0 W/m² | - |
| 1778045730 | 23.33° C | 64% | 1008.9 hPa | 0 mm | 0.89 m/s, 160° | 0 W/m² | - |
| 1778045428 | 23.33° C | 63% | 1008.9 hPa | 0 mm | 0.45 m/s, 101° | 0 W/m² | - |
| 1778045126 | 23.33° C | 62% | 1008.9 hPa | 0 mm | 1.34 m/s, 226° | 0 W/m² | - |
| 1778044823 | 23.33° C | 63% | 1009 hPa | 0 mm | 0.89 m/s, 163° | 0 W/m² | - |
| 1778044520 | 23.33° C | 63% | 1009 hPa | 0 mm | 0.45 m/s, 194° | 0 W/m² | - |
| 1778044217 | 23.33° C | 63% | 1008.9 hPa | 0 mm | 0.89 m/s, 234° | 0 W/m² | - |
| 1778043915 | 23.33° C | 63% | 1009.1 hPa | 0 mm | 0.89 m/s, 239° | 0 W/m² | - |
* Rain latest hour (hover to see other rain measurements)
** Current wind speed in m/s (hover to see current wind gust speed)